Time,TemperatureF,DewpointF,PressureIn,WindDirection,WindDirectionDegrees,WindSpeedMPH,WindSpeedGustMPH,Humidity,HourlyPrecipIn,Conditions,Clouds,dailyrainin,SoftwareType,DateUTC
2013-04-24 00:01:00,42.6,38.5,30.13,NE,41,0.0,0.9,85,0.00,,,0.00,meteobridge,2013-04-24 04:01:00,
2013-04-24 00:02:00,42.6,38.5,30.13,NE,42,0.0,0.9,85,0.00,,,0.00,meteobridge,2013-04-24 04:02:00,
2013-04-24 00:03:00,42.6,38.5,30.13,NNE,26,0.0,0.9,85,0.00,,,0.00,meteobridge,2013-04-24 04:03:00,
2013-04-24 00:09:00,42.8,38.7,30.12,NE,36,0.0,2.9,85,0.00,,,0.00,meteobridge,2013-04-24 04:09:00,
2013-04-24 00:10:00,42.8,38.7,30.12,NE,36,0.9,2.0,85,0.00,,,0.00,meteobridge,2013-04-24 04:10:00,
2013-04-24 00:15:00,43.0,38.5,30.12,NE,37,0.0,0.9,84,0.00,,,0.00,meteobridge,2013-04-24 04:15:00,
2013-04-24 00:20:00,43.0,38.5,30.12,East,80,0.0,0.9,84,0.00,,,0.00,meteobridge,2013-04-24 04:20:00,
2013-04-24 00:25:00,43.0,38.5,30.12,ENE,75,0.0,0.9,84,0.00,,,0.00,meteobridge,2013-04-24 04:25:00,
2013-04-24 00:30:00,43.0,38.5,30.12,NE,53,0.0,0.9,84,0.00,,,0.00,meteobridge,2013-04-24 04:30:00,
2013-04-24 00:36:00,43.0,38.5,30.12,North,5,0.0,2.0,84,0.00,,,0.00,meteobridge,2013-04-24 04:36:00,
2013-04-24 00:41:00,43.2,38.7,30.12,North,5,0.9,0.9,84,0.00,,,0.00,meteobridge,2013-04-24 04:41:00,
2013-04-24 00:46:00,43.2,39.0,30.11,WNW,298,0.9,2.0,85,0.00,,,0.00,meteobridge,2013-04-24 04:46:00,
2013-04-24 00:51:00,43.2,39.0,30.11,NE,41,0.9,2.9,85,0.00,,,0.00,meteobridge,2013-04-24 04:51:00,
2013-04-24 00:57:00,43.2,39.0,30.11,North,5,0.0,2.0,85,0.00,,,0.00,meteobridge,2013-04-24 04:57:00,
2013-04-24 01:02:00,43.3,39.2,30.11,NW,314,0.9,2.9,85,0.00,,,0.00,meteobridge,2013-04-24 05:02:00,
2013-04-24 01:07:00,43.3,39.2,30.11,NW,321,0.9,2.0,85,0.00,,,0.00,meteobridge,2013-04-24 05:07:00,
2013-04-24 01:12:00,43.3,39.2,30.10,NW,320,0.9,2.0,85,0.00,,,0.00,meteobridge,2013-04-24 05:12:00,
2013-04-24 01:17:00,43.3,39.2,30.10,NNE,24,0.0,2.0,85,0.00,,,0.00,meteobridge,2013-04-24 05:17:00,
2013-04-24 01:23:00,43.3,38.8,30.10,NNE,28,0.0,2.0,84,0.00,,,0.00,meteobridge,2013-04-24 05:23:00,
2013-04-24 01:28:00,43.3,39.2,30.10,NNW,346,0.0,0.9,85,0.00,,,0.00,meteobridge,2013-04-24 05:28:00,
2013-04-24 01:33:00,43.3,38.8,30.09,NE,37,0.9,2.9,84,0.00,,,0.00,meteobridge,2013-04-24 05:33:00,
2013-04-24 01:38:00,43.5,39.0,30.09,NE,37,0.0,0.9,84,0.00,,,0.00,meteobridge,2013-04-24 05:38:00,
2013-04-24 01:44:00,43.5,39.0,30.09,NE,37,0.0,2.0,84,0.00,,,0.00,meteobridge,2013-04-24 05:44:00,
2013-04-24 01:49:00,43.5,39.0,30.08,NE,37,0.0,2.0,84,0.00,,,0.00,meteobridge,2013-04-24 05:49:00,
2013-04-24 01:54:00,43.5,39.4,30.08,NNE,17,0.0,0.9,85,0.00,,,0.00,meteobridge,2013-04-24 05:54:00,
2013-04-24 02:00:00,43.5,39.0,30.07,NE,40,0.0,0.9,84,0.00,,,0.00,meteobridge,2013-04-24 06:00:00,
2013-04-24 02:05:00,43.5,39.4,30.07,NE,40,0.0,0.0,85,0.00,,,0.00,meteobridge,2013-04-24 06:05:00,
2013-04-24 02:10:00,43.5,39.4,30.07,NNE,17,0.9,0.9,85,0.00,,,0.00,meteobridge,2013-04-24 06:10:00,
2013-04-24 02:15:00,43.5,39.4,30.07,North,11,0.0,2.0,85,0.00,,,0.00,meteobridge,2013-04-24 06:15:00,
2013-04-24 02:20:00,43.5,39.4,30.07,NNW,341,0.0,0.9,85,0.00,,,0.00,meteobridge,2013-04-24 06:20:00,
2013-04-24 02:26:00,43.5,39.4,30.06,WNW,302,0.0,0.0,85,0.00,,,0.00,meteobridge,2013-04-24 06:26:00,
2013-04-24 02:31:00,43.5,39.4,30.07,NNE,27,0.9,2.0,85,0.00,,,0.00,meteobridge,2013-04-24 06:31:00,
2013-04-24 02:37:00,43.5,39.4,30.07,NE,44,0.9,0.9,85,0.00,,,0.00,meteobridge,2013-04-24 06:37:00,
2013-04-24 02:42:00,43.5,39.4,30.06,NE,35,0.9,0.9,85,0.00,,,0.00,meteobridge,2013-04-24 06:42:00,
2013-04-24 02:47:00,43.5,39.4,30.06,NE,35,0.0,0.9,85,0.00,,,0.00,meteobridge,2013-04-24 06:47:00,
2013-04-24 02:52:00,43.5,39.4,30.07,North,11,0.0,2.0,85,0.00,,,0.00,meteobridge,2013-04-24 06:52:00,
2013-04-24 02:58:00,43.5,39.4,30.07,NW,325,0.0,0.0,85,0.00,,,0.00,meteobridge,2013-04-24 06:58:00,
2013-04-24 03:03:00,43.5,39.4,30.07,NW,325,0.0,0.9,85,0.00,,,0.00,meteobridge,2013-04-24 07:03:00,
2013-04-24 03:08:00,43.5,39.4,30.07,NNW,348,0.0,2.9,85,0.00,,,0.00,meteobridge,2013-04-24 07:08:00,
2013-04-24 03:14:00,43.5,39.4,30.07,NW,312,0.0,0.0,85,0.00,,,0.00,meteobridge,2013-04-24 07:14:00,
2013-04-24 03:19:00,43.5,39.4,30.07,NW,314,0.9,0.9,85,0.00,,,0.00,meteobridge,2013-04-24 07:19:00,
2013-04-24 03:25:00,43.5,39.4,30.07,NW,313,0.0,0.9,85,0.00,,,0.00,meteobridge,2013-04-24 07:25:00,
2013-04-24 03:30:00,43.5,39.4,30.07,NW,313,0.0,0.9,85,0.00,,,0.00,meteobridge,2013-04-24 07:30:00,
2013-04-24 03:35:00,43.5,39.6,30.07,NNE,25,0.9,2.0,86,0.00,,,0.00,meteobridge,2013-04-24 07:35:00,
2013-04-24 03:40:00,43.5,39.6,30.06,NNE,24,0.9,0.9,86,0.00,,,0.00,meteobridge,2013-04-24 07:40:00,
2013-04-24 03:46:00,43.5,39.6,30.06,NNE,12,0.0,2.0,86,0.00,,,0.00,meteobridge,2013-04-24 07:46:00,
2013-04-24 03:51:00,43.5,39.6,30.06,NNE,14,0.0,2.0,86,0.00,,,0.00,meteobridge,2013-04-24 07:51:00,
2013-04-24 03:56:00,43.5,39.6,30.06,NNE,24,0.0,2.0,86,0.00,,,0.00,meteobridge,2013-04-24 07:56:00,
2013-04-24 04:01:00,43.5,39.6,30.06,NNE,24,0.0,0.9,86,0.00,,,0.00,meteobridge,2013-04-24 08:01:00,
2013-04-24 04:06:00,43.5,39.6,30.06,WNW,300,2.0,2.0,86,0.00,,,0.00,meteobridge,2013-04-24 08:06:00,
2013-04-24 04:12:00,43.3,39.4,30.06,WNW,283,0.9,4.0,86,0.00,,,0.00,meteobridge,2013-04-24 08:12:00,
2013-04-24 04:17:00,43.3,39.4,30.06,NE,38,0.0,0.9,86,0.00,,,0.00,meteobridge,2013-04-24 08:17:00,
2013-04-24 04:22:00,43.3,39.4,30.05,NNW,333,0.0,2.0,86,0.00,,,0.00,meteobridge,2013-04-24 08:22:00,
2013-04-24 04:27:00,43.3,39.4,30.05,NE,37,0.0,2.0,86,0.00,,,0.00,meteobridge,2013-04-24 08:27:00,
2013-04-24 04:32:00,43.3,39.4,30.05,NE,37,0.0,0.9,86,0.00,,,0.00,meteobridge,2013-04-24 08:32:00,
2013-04-24 04:37:00,43.2,39.2,30.05,NNW,348,0.0,0.0,86,0.00,,,0.00,meteobridge,2013-04-24 08:37:00,
2013-04-24 04:42:00,43.2,39.2,30.05,WNW,296,0.9,0.9,86,0.00,,,0.00,meteobridge,2013-04-24 08:42:00,
2013-04-24 04:48:00,43.2,39.6,30.05,North,5,0.9,2.0,87,0.00,,,0.00,meteobridge,2013-04-24 08:48:00,
2013-04-24 04:53:00,43.2,39.6,30.05,NNW,337,2.0,2.0,87,0.00,,,0.00,meteobridge,2013-04-24 08:53:00,
2013-04-24 04:59:00,43.0,39.4,30.05,NNW,346,0.0,0.9,87,0.00,,,0.00,meteobridge,2013-04-24 08:59:00,
2013-04-24 05:04:00,43.0,39.4,30.05,NNW,346,0.0,0.9,87,0.00,,,0.00,meteobridge,2013-04-24 09:04:00,
2013-04-24 05:09:00,43.0,39.4,30.05,NNW,346,0.0,0.0,87,0.00,,,0.00,meteobridge,2013-04-24 09:09:00,
2013-04-24 05:15:00,43.0,39.4,30.05,NNW,346,0.0,0.0,87,0.00,,,0.00,meteobridge,2013-04-24 09:15:00,
2013-04-24 05:20:00,42.6,39.0,30.05,NNW,346,0.0,0.0,87,0.00,,,0.00,meteobridge,2013-04-24 09:20:00,
2013-04-24 05:25:00,42.4,38.8,30.05,NNW,346,0.0,0.0,87,0.00,,,0.00,meteobridge,2013-04-24 09:25:00,
2013-04-24 05:30:00,42.3,38.7,30.05,NNW,346,0.0,0.9,87,0.00,,,0.00,meteobridge,2013-04-24 09:30:00,
2013-04-24 05:35:00,42.1,38.8,30.05,NNW,346,0.0,0.0,88,0.00,,,0.00,meteobridge,2013-04-24 09:35:00,
2013-04-24 05:40:00,41.9,38.7,30.06,NNW,346,0.0,0.0,88,0.00,,,0.00,meteobridge,2013-04-24 09:40:00,
2013-04-24 05:46:00,41.5,38.3,30.06,NNW,346,0.0,0.0,88,0.00,,,0.00,meteobridge,2013-04-24 09:46:00,
2013-04-24 05:51:00,41.5,38.3,30.06,NNW,346,0.0,0.0,88,0.00,,,0.00,meteobridge,2013-04-24 09:51:00,
2013-04-24 05:56:00,41.4,38.1,30.06,NNW,346,0.0,0.0,88,0.00,,,0.00,meteobridge,2013-04-24 09:56:00,
2013-04-24 06:02:00,41.2,38.1,30.06,NNW,346,0.0,0.9,89,0.00,,,0.00,meteobridge,2013-04-24 10:02:00,
2013-04-24 06:07:00,40.8,38.1,30.07,NNW,346,0.0,0.0,90,0.00,,,0.00,meteobridge,2013-04-24 10:07:00,
2013-04-24 06:13:00,40.6,37.9,30.07,NNW,346,0.0,0.9,90,0.00,,,0.00,meteobridge,2013-04-24 10:13:00,
2013-04-24 06:18:00,40.5,37.8,30.07,NNW,346,0.0,0.0,90,0.00,,,0.00,meteobridge,2013-04-24 10:18:00,
2013-04-24 06:24:00,40.5,37.8,30.07,NNW,346,0.0,0.0,90,0.00,,,0.00,meteobridge,2013-04-24 10:24:00,
2013-04-24 06:29:00,40.3,37.6,30.07,NNW,346,0.0,0.0,90,0.00,,,0.00,meteobridge,2013-04-24 10:29:00,
2013-04-24 06:34:00,40.3,37.6,30.07,NNW,346,0.0,0.0,90,0.00,,,0.00,meteobridge,2013-04-24 10:34:00,
2013-04-24 06:40:00,39.9,36.9,30.07,NNW,346,0.0,0.0,89,0.00,,,0.00,meteobridge,2013-04-24 10:40:00,
2013-04-24 06:45:00,39.7,37.0,30.07,NNW,346,0.0,0.0,90,0.00,,,0.00,meteobridge,2013-04-24 10:45:00,
2013-04-24 06:50:00,39.7,37.4,30.07,NNW,346,0.0,0.0,91,0.00,,,0.00,meteobridge,2013-04-24 10:50:00,
2013-04-24 06:55:00,39.6,37.2,30.07,NNW,346,0.0,0.0,91,0.00,,,0.00,meteobridge,2013-04-24 10:55:00,
2013-04-24 07:01:00,39.6,37.4,30.07,NNW,346,0.0,0.9,92,0.00,,,0.00,meteobridge,2013-04-24 11:01:00,
2013-04-24 07:06:00,39.7,37.9,30.07,NNW,344,0.0,2.0,93,0.00,,,0.00,meteobridge,2013-04-24 11:06:00,
2013-04-24 07:11:00,39.9,37.8,30.07,NNW,339,0.0,0.0,92,0.00,,,0.00,meteobridge,2013-04-24 11:11:00,
2013-04-24 07:17:00,40.5,38.3,30.08,NW,317,0.9,2.0,92,0.00,,,0.00,meteobridge,2013-04-24 11:17:00,
2013-04-24 07:22:00,40.8,38.5,30.08,West,279,2.0,2.0,91,0.00,,,0.00,meteobridge,2013-04-24 11:22:00,
2013-04-24 07:28:00,41.2,38.5,30.08,WNW,293,0.9,2.0,90,0.00,,,0.00,meteobridge,2013-04-24 11:28:00,
2013-04-24 07:33:00,41.4,38.7,30.08,WNW,294,0.0,0.9,90,0.00,,,0.00,meteobridge,2013-04-24 11:33:00,
2013-04-24 07:38:00,41.5,38.5,30.08,WNW,291,0.0,0.0,89,0.00,,,0.00,meteobridge,2013-04-24 11:38:00,
2013-04-24 07:44:00,41.7,38.7,30.08,WNW,294,0.9,0.9,89,0.00,,,0.00,meteobridge,2013-04-24 11:44:00,
2013-04-24 07:49:00,42.1,39.0,30.08,NW,313,0.0,2.0,89,0.00,,,0.00,meteobridge,2013-04-24 11:49:00,
2013-04-24 07:55:00,42.3,39.0,30.07,NW,314,0.0,2.0,88,0.00,,,0.00,meteobridge,2013-04-24 11:55:00,
2013-04-24 08:00:00,42.6,39.4,30.07,WNW,286,0.9,2.0,88,0.00,,,0.00,meteobridge,2013-04-24 12:00:00,
2013-04-24 08:05:00,43.0,39.4,30.07,WNW,296,0.0,2.0,87,0.00,,,0.00,meteobridge,2013-04-24 12:05:00,
2013-04-24 08:10:00,43.3,39.4,30.06,WNW,302,0.0,2.0,86,0.00,,,0.00,meteobridge,2013-04-24 12:10:00,
2013-04-24 08:15:00,43.5,39.6,30.06,WNW,302,0.0,0.0,86,0.00,,,0.00,meteobridge,2013-04-24 12:15:00,
2013-04-24 08:20:00,43.9,39.7,30.06,WNW,302,0.0,0.9,85,0.00,,,0.00,meteobridge,2013-04-24 12:20:00,
2013-04-24 08:26:00,44.2,40.1,30.06,NW,317,0.0,2.0,85,0.00,,,0.00,meteobridge,2013-04-24 12:26:00,
2013-04-24 08:31:00,44.8,39.9,30.06,NW,304,0.0,2.0,83,0.00,,,0.00,meteobridge,2013-04-24 12:31:00,
2013-04-24 08:36:00,45.1,40.3,30.05,WNW,286,2.9,4.0,83,0.00,,,0.00,meteobridge,2013-04-24 12:36:00,
2013-04-24 08:42:00,45.3,40.5,30.05,WNW,293,0.9,0.9,83,0.00,,,0.00,meteobridge,2013-04-24 12:42:00,
2013-04-24 08:47:00,45.9,40.6,30.06,SSW,200,0.0,4.0,82,0.00,,,0.00,meteobridge,2013-04-24 12:47:00,
2013-04-24 08:52:00,46.0,40.5,30.05,WSW,249,0.9,2.0,81,0.00,,,0.00,meteobridge,2013-04-24 12:52:00,
2013-04-24 08:57:00,46.6,40.8,30.05,NW,306,2.9,4.9,80,0.00,,,0.00,meteobridge,2013-04-24 12:57:00,
2013-04-24 09:03:00,47.1,41.0,30.05,SW,236,0.0,6.0,79,0.00,,,0.00,meteobridge,2013-04-24 13:03:00,
2013-04-24 09:08:00,47.5,41.4,30.05,WNW,303,2.0,2.9,79,0.00,,,0.00,meteobridge,2013-04-24 13:08:00,
2013-04-24 09:14:00,47.8,41.4,30.05,SSW,196,2.9,2.9,78,0.00,,,0.00,meteobridge,2013-04-24 13:14:00,
2013-04-24 09:19:00,48.0,41.2,30.05,West,277,0.9,4.0,77,0.00,,,0.00,meteobridge,2013-04-24 13:19:00,
2013-04-24 09:24:00,48.6,41.4,30.05,WNW,285,0.9,2.0,76,0.00,,,0.00,meteobridge,2013-04-24 13:24:00,
2013-04-24 09:29:00,48.9,41.7,30.05,NW,309,0.9,2.9,76,0.00,,,0.00,meteobridge,2013-04-24 13:29:00,
2013-04-24 09:34:00,49.3,41.7,30.04,SSW,207,2.0,4.0,75,0.00,,,0.00,meteobridge,2013-04-24 13:34:00,
2013-04-24 09:39:00,49.6,42.1,30.04,NW,309,0.9,2.0,75,0.00,,,0.00,meteobridge,2013-04-24 13:39:00,
2013-04-24 09:45:00,50.2,42.3,30.04,SSW,196,0.0,4.0,74,0.00,,,0.00,meteobridge,2013-04-24 13:45:00,
2013-04-24 09:50:00,50.7,42.8,30.04,West,274,2.9,2.9,74,0.00,,,0.00,meteobridge,2013-04-24 13:50:00,
2013-04-24 09:56:00,51.4,42.8,30.04,West,264,2.0,4.0,72,0.00,,,0.00,meteobridge,2013-04-24 13:56:00,
2013-04-24 10:01:00,52.0,43.2,30.04,NW,317,4.0,4.9,72,0.00,,,0.00,meteobridge,2013-04-24 14:01:00,
2013-04-24 10:06:00,52.3,42.8,30.03,SSW,205,0.0,4.0,70,0.00,,,0.00,meteobridge,2013-04-24 14:06:00,
2013-04-24 10:12:00,52.7,42.8,30.03,NW,323,0.0,2.9,69,0.00,,,0.00,meteobridge,2013-04-24 14:12:00,
2013-04-24 10:17:00,53.1,42.4,30.03,NW,314,2.0,2.0,67,0.00,,,0.00,meteobridge,2013-04-24 14:17:00,
2013-04-24 10:22:00,53.2,43.0,30.03,West,278,0.0,4.9,68,0.00,,,0.00,meteobridge,2013-04-24 14:22:00,
2013-04-24 10:27:00,53.8,43.2,30.03,WSW,241,0.0,4.9,67,0.00,,,0.00,meteobridge,2013-04-24 14:27:00,
2013-04-24 10:32:00,54.1,43.3,30.03,SSW,198,0.0,4.9,67,0.00,,,0.00,meteobridge,2013-04-24 14:32:00,
2013-04-24 10:37:00,54.5,43.0,30.03,NW,323,0.9,4.0,65,0.00,,,0.00,meteobridge,2013-04-24 14:37:00,
2013-04-24 10:43:00,54.9,43.3,30.02,NW,319,0.0,2.0,65,0.00,,,0.00,meteobridge,2013-04-24 14:43:00,
2013-04-24 10:48:00,55.0,43.2,30.02,NW,307,0.9,2.9,64,0.00,,,0.00,meteobridge,2013-04-24 14:48:00,
2013-04-24 10:53:00,55.4,43.3,30.02,SW,216,0.9,4.0,64,0.00,,,0.00,meteobridge,2013-04-24 14:53:00,
2013-04-24 10:59:00,55.8,43.0,30.02,WNW,294,0.0,2.9,62,0.00,,,0.00,meteobridge,2013-04-24 14:59:00,
2013-04-24 11:04:00,55.9,43.9,30.01,WNW,298,0.9,2.0,64,0.00,,,0.00,meteobridge,2013-04-24 15:04:00,
2013-04-24 11:09:00,56.3,43.0,30.01,South,190,0.0,2.9,61,0.00,,,0.00,meteobridge,2013-04-24 15:09:00,
2013-04-24 11:14:00,56.5,44.1,30.01,WSW,241,2.0,4.0,63,0.00,,,0.00,meteobridge,2013-04-24 15:14:00,
2013-04-24 11:19:00,57.0,43.3,30.00,South,181,0.9,2.9,60,0.00,,,0.00,meteobridge,2013-04-24 15:19:00,
2013-04-24 11:24:00,57.2,43.9,30.00,SW,229,0.9,4.0,61,0.00,,,0.00,meteobridge,2013-04-24 15:24:00,
2013-04-24 11:30:00,57.7,43.9,30.00,SSW,196,0.0,4.0,60,0.00,,,0.00,meteobridge,2013-04-24 15:30:00,
2013-04-24 11:35:00,58.5,43.7,30.00,SW,225,0.9,4.9,58,0.00,,,0.00,meteobridge,2013-04-24 15:35:00,
2013-04-24 11:40:00,58.8,44.6,30.00,WSW,238,2.0,2.9,59,0.00,,,0.00,meteobridge,2013-04-24 15:40:00,
2013-04-24 11:46:00,59.4,44.1,29.99,North,0,0.9,2.9,57,0.00,,,0.00,meteobridge,2013-04-24 15:46:00,
2013-04-24 11:51:00,60.1,43.9,29.99,WSW,254,2.9,2.9,55,0.00,,,0.00,meteobridge,2013-04-24 15:51:00,
2013-04-24 11:56:00,60.4,44.2,29.99,WNW,300,2.0,4.0,55,0.00,,,0.00,meteobridge,2013-04-24 15:56:00,
2013-04-24 12:02:00,61.0,44.2,29.98,NW,305,0.9,4.9,54,0.00,,,0.00,meteobridge,2013-04-24 16:02:00,
2013-04-24 12:07:00,61.3,44.1,29.98,WSW,254,2.0,6.9,53,0.00,,,0.00,meteobridge,2013-04-24 16:07:00,
2013-04-24 12:12:00,61.5,44.2,29.98,SSW,209,0.0,2.9,53,0.00,,,0.00,meteobridge,2013-04-24 16:12:00,
2013-04-24 12:17:00,62.1,44.2,29.97,NW,325,0.9,4.0,52,0.00,,,0.00,meteobridge,2013-04-24 16:17:00,
2013-04-24 12:22:00,62.4,44.6,29.97,WNW,289,2.0,4.0,52,0.00,,,0.00,meteobridge,2013-04-24 16:22:00,
2013-04-24 12:28:00,63.0,45.1,29.97,WNW,296,0.9,2.9,52,0.00,,,0.00,meteobridge,2013-04-24 16:28:00,
2013-04-24 12:33:00,63.9,45.9,29.96,WSW,244,0.9,2.9,52,0.00,,,0.00,meteobridge,2013-04-24 16:33:00,
2013-04-24 12:38:00,65.1,46.6,29.96,SW,234,0.9,2.9,51,0.00,,,0.00,meteobridge,2013-04-24 16:38:00,
2013-04-24 12:43:00,66.0,45.1,29.96,South,182,2.0,6.0,47,0.00,,,0.00,meteobridge,2013-04-24 16:43:00,
2013-04-24 12:49:00,66.6,44.6,29.95,WNW,301,2.0,6.0,45,0.00,,,0.00,meteobridge,2013-04-24 16:49:00,
2013-04-24 12:54:00,66.7,45.3,29.94,NW,317,2.0,8.1,46,0.00,,,0.00,meteobridge,2013-04-24 16:54:00,
2013-04-24 12:59:00,66.9,45.0,29.94,SSW,198,2.9,2.9,45,0.00,,,0.00,meteobridge,2013-04-24 16:59:00,
2013-04-24 13:04:00,67.6,46.8,29.93,NW,311,2.0,2.0,47,0.00,,,0.00,meteobridge,2013-04-24 17:04:00,
2013-04-24 13:10:00,68.5,46.4,29.93,NW,310,2.0,2.9,45,0.00,,,0.00,meteobridge,2013-04-24 17:10:00,
2013-04-24 13:15:00,69.4,46.0,29.93,SSW,196,2.9,4.9,43,0.00,,,0.00,meteobridge,2013-04-24 17:15:00,
2013-04-24 13:20:00,69.8,47.5,29.93,WSW,242,2.0,4.9,45,0.00,,,0.00,meteobridge,2013-04-24 17:20:00,
2013-04-24 13:25:00,70.2,46.6,29.92,WNW,299,4.0,6.0,43,0.00,,,0.00,meteobridge,2013-04-24 17:25:00,
2013-04-24 13:31:00,70.5,46.4,29.92,SSW,199,4.0,4.0,42,0.00,,,0.00,meteobridge,2013-04-24 17:31:00,
2013-04-24 13:36:00,71.1,45.5,29.92,WNW,294,2.0,6.0,40,0.00,,,0.00,meteobridge,2013-04-24 17:36:00,
2013-04-24 13:41:00,71.2,46.4,29.91,West,276,2.0,6.0,41,0.00,,,0.00,meteobridge,2013-04-24 17:41:00,
2013-04-24 13:46:00,71.4,46.6,29.91,South,184,0.9,4.9,41,0.00,,,0.00,meteobridge,2013-04-24 17:46:00,
2013-04-24 13:52:00,72.0,46.9,29.91,WNW,294,4.0,6.0,41,0.00,,,0.00,meteobridge,2013-04-24 17:52:00,
2013-04-24 13:57:00,72.0,46.4,29.90,SW,214,0.9,4.9,40,0.00,,,0.00,meteobridge,2013-04-24 17:57:00,
2013-04-24 14:02:00,72.3,47.3,29.90,WNW,290,2.9,6.9,41,0.00,,,0.00,meteobridge,2013-04-24 18:02:00,
2013-04-24 14:07:00,72.7,47.7,29.91,SSW,200,4.0,4.9,41,0.00,,,0.00,meteobridge,2013-04-24 18:07:00,
2013-04-24 14:13:00,73.0,48.0,29.91,SSW,209,8.1,8.1,41,0.00,,,0.00,meteobridge,2013-04-24 18:13:00,
2013-04-24 14:18:00,72.9,47.1,29.91,South,188,6.0,8.1,40,0.00,,,0.00,meteobridge,2013-04-24 18:18:00,
2013-04-24 14:23:00,72.1,47.1,29.91,South,186,0.9,6.9,41,0.00,,,0.00,meteobridge,2013-04-24 18:23:00,
2013-04-24 14:28:00,72.3,48.0,29.91,SSW,205,2.9,4.9,42,0.00,,,0.00,meteobridge,2013-04-24 18:28:00,
2013-04-24 14:33:00,72.9,47.8,29.91,NW,314,0.9,2.9,41,0.00,,,0.00,meteobridge,2013-04-24 18:33:00,
2013-04-24 14:38:00,73.2,47.5,29.90,WSW,254,0.9,4.9,40,0.00,,,0.00,meteobridge,2013-04-24 18:38:00,
2013-04-24 14:43:00,73.8,47.3,29.90,WSW,240,0.9,4.9,39,0.00,,,0.00,meteobridge,2013-04-24 18:43:00,
2013-04-24 14:48:00,73.9,46.8,29.90,WNW,290,2.0,4.9,38,0.00,,,0.00,meteobridge,2013-04-24 18:48:00,
2013-04-24 14:53:00,73.9,48.0,29.89,SSW,196,2.9,6.9,40,0.00,,,0.00,meteobridge,2013-04-24 18:53:00,
2013-04-24 14:59:00,73.9,46.8,29.89,WNW,286,2.9,6.0,38,0.00,,,0.00,meteobridge,2013-04-24 18:59:00,
2013-04-24 15:04:00,74.3,47.1,29.88,NW,315,0.9,4.9,38,0.00,,,0.00,meteobridge,2013-04-24 19:04:00,
2013-04-24 15:09:00,74.5,47.1,29.88,SSW,204,2.0,6.0,38,0.00,,,0.00,meteobridge,2013-04-24 19:09:00,
2013-04-24 15:14:00,74.8,48.2,29.87,SSW,193,4.9,6.9,39,0.00,,,0.00,meteobridge,2013-04-24 19:14:00,
2013-04-24 15:20:00,75.0,48.4,29.87,South,184,2.9,6.9,39,0.00,,,0.00,meteobridge,2013-04-24 19:20:00,
2013-04-24 15:25:00,74.8,48.2,29.87,ESE,111,2.0,2.9,39,0.00,,,0.00,meteobridge,2013-04-24 19:25:00,
2013-04-24 15:30:00,74.1,48.2,29.87,SSW,194,4.9,6.9,40,0.00,,,0.00,meteobridge,2013-04-24 19:30:00,
2013-04-24 15:35:00,73.6,47.8,29.87,SW,218,6.0,6.9,40,0.00,,,0.00,meteobridge,2013-04-24 19:35:00,
2013-04-24 15:40:00,72.9,47.8,29.86,SSE,161,6.0,6.9,41,0.00,,,0.00,meteobridge,2013-04-24 19:40:00,
2013-04-24 15:45:00,72.0,48.2,29.86,West,279,2.9,10.1,43,0.00,,,0.00,meteobridge,2013-04-24 19:45:00,
2013-04-24 15:50:00,70.9,47.8,29.86,SSW,200,2.0,8.9,44,0.00,,,0.00,meteobridge,2013-04-24 19:50:00,
2013-04-24 15:56:00,70.2,47.3,29.86,South,187,0.9,11.0,44,0.00,,,0.00,meteobridge,2013-04-24 19:56:00,
2013-04-24 16:01:00,69.6,47.8,29.86,East,90,2.0,8.1,46,0.00,,,0.00,meteobridge,2013-04-24 20:01:00,
2013-04-24 16:06:00,69.3,46.9,29.86,SW,217,0.0,8.9,45,0.00,,,0.00,meteobridge,2013-04-24 20:06:00,
2013-04-24 16:11:00,68.9,47.8,29.86,ESE,120,0.0,8.9,47,0.00,,,0.00,meteobridge,2013-04-24 20:11:00,
2013-04-24 16:16:00,68.7,47.1,29.86,South,187,4.0,11.0,46,0.00,,,0.00,meteobridge,2013-04-24 20:16:00,
2013-04-24 16:21:00,68.5,47.5,29.86,SSW,211,2.9,4.9,47,0.00,,,0.00,meteobridge,2013-04-24 20:21:00,
2013-04-24 16:26:00,68.4,47.8,29.87,South,180,2.9,6.0,48,0.00,,,0.00,meteobridge,2013-04-24 20:26:00,
2013-04-24 16:31:00,68.2,47.1,29.87,SSW,209,2.9,8.9,47,0.00,,,0.00,meteobridge,2013-04-24 20:31:00,
2013-04-24 16:36:00,68.4,47.3,29.87,SW,219,4.9,12.1,47,0.00,,,0.00,meteobridge,2013-04-24 20:36:00,
2013-04-24 16:41:00,68.2,47.1,29.86,SSW,194,6.9,6.9,47,0.00,,,0.00,meteobridge,2013-04-24 20:41:00,
2013-04-24 16:47:00,68.0,47.7,29.86,SSE,148,0.9,4.9,48,0.00,,,0.00,meteobridge,2013-04-24 20:47:00,
2013-04-24 16:52:00,67.8,48.0,29.86,SW,221,4.9,4.9,49,0.00,,,0.00,meteobridge,2013-04-24 20:52:00,
2013-04-24 16:57:00,67.8,47.5,29.86,South,184,4.0,6.0,48,0.00,,,0.00,meteobridge,2013-04-24 20:57:00,
2013-04-24 17:02:00,68.0,48.2,29.86,SSW,196,0.0,8.9,49,0.00,,,0.00,meteobridge,2013-04-24 21:02:00,
2013-04-24 17:08:00,67.6,47.8,29.86,SSW,202,6.0,6.9,49,0.00,,,0.00,meteobridge,2013-04-24 21:08:00,
2013-04-24 17:13:00,67.6,47.8,29.87,South,175,10.1,10.1,49,0.00,,,0.00,meteobridge,2013-04-24 21:13:00,
2013-04-24 17:18:00,67.5,48.7,29.87,SW,231,0.9,4.0,51,0.00,,,0.00,meteobridge,2013-04-24 21:18:00,
2013-04-24 17:23:00,67.5,48.7,29.87,ESE,107,2.9,8.1,51,0.00,,,0.00,meteobridge,2013-04-24 21:23:00,
2013-04-24 17:28:00,67.3,48.6,29.87,SSE,167,0.0,6.0,51,0.00,,,0.00,meteobridge,2013-04-24 21:28:00,
2013-04-24 17:34:00,66.7,48.0,29.87,SSW,205,0.0,4.0,51,0.00,,,0.00,meteobridge,2013-04-24 21:34:00,
2013-04-24 17:39:00,66.7,48.6,29.87,SW,222,2.9,4.0,52,0.00,,,0.00,meteobridge,2013-04-24 21:39:00,
2013-04-24 17:44:00,66.6,48.4,29.87,SW,218,2.0,10.1,52,0.00,,,0.00,meteobridge,2013-04-24 21:44:00,
2013-04-24 17:49:00,66.0,47.8,29.87,South,178,2.0,6.0,52,0.00,,,0.00,meteobridge,2013-04-24 21:49:00,
2013-04-24 17:54:00,65.8,48.7,29.86,SE,143,0.9,4.9,54,0.00,,,0.00,meteobridge,2013-04-24 21:54:00,
2013-04-24 17:59:00,65.7,48.6,29.86,SSW,207,2.0,4.9,54,0.00,,,0.00,meteobridge,2013-04-24 21:59:00,
2013-04-24 18:05:00,65.1,48.0,29.86,SW,217,4.0,6.0,54,0.00,,,0.00,meteobridge,2013-04-24 22:05:00,
2013-04-24 18:10:00,64.6,48.0,29.85,SSW,203,0.9,11.0,55,0.00,,,0.00,meteobridge,2013-04-24 22:10:00,
2013-04-24 18:15:00,63.9,48.4,29.85,SE,128,0.0,2.0,57,0.00,,,0.00,meteobridge,2013-04-24 22:15:00,
2013-04-24 18:20:00,63.3,48.4,29.85,SSE,155,0.0,4.0,58,0.00,,,0.00,meteobridge,2013-04-24 22:20:00,
2013-04-24 18:26:00,62.8,48.2,29.85,East,87,0.0,4.9,59,0.00,,,0.00,meteobridge,2013-04-24 22:26:00,
2013-04-24 18:31:00,62.2,48.2,29.85,SSE,165,0.0,0.9,60,0.00,,,0.00,meteobridge,2013-04-24 22:31:00,
2013-04-24 18:37:00,61.9,48.2,29.85,SW,233,0.0,0.9,61,0.00,,,0.00,meteobridge,2013-04-24 22:37:00,
2013-04-24 18:42:00,61.5,48.4,29.84,SE,127,0.0,0.9,62,0.00,,,0.00,meteobridge,2013-04-24 22:42:00,
2013-04-24 18:47:00,61.0,47.8,29.84,SSW,202,0.0,4.9,62,0.00,,,0.00,meteobridge,2013-04-24 22:47:00,
2013-04-24 18:53:00,60.4,47.8,29.84,SE,143,0.0,4.0,63,0.00,,,0.00,meteobridge,2013-04-24 22:53:00,
2013-04-24 18:58:00,59.9,47.7,29.84,SE,132,0.9,2.9,64,0.00,,,0.00,meteobridge,2013-04-24 22:58:00,
2013-04-24 19:03:00,59.2,47.5,29.84,WSW,254,0.0,4.0,65,0.00,,,0.00,meteobridge,2013-04-24 23:03:00,
2013-04-24 19:08:00,58.6,47.7,29.85,South,191,4.0,6.0,67,0.00,,,0.00,meteobridge,2013-04-24 23:08:00,
2013-04-24 19:13:00,58.1,47.7,29.85,SW,215,4.0,6.9,68,0.00,,,0.00,meteobridge,2013-04-24 23:13:00,
2013-04-24 19:18:00,57.4,47.3,29.85,SSW,202,2.0,8.1,69,0.00,,,0.00,meteobridge,2013-04-24 23:18:00,
2013-04-24 19:24:00,56.5,47.5,29.85,SW,236,2.0,4.9,72,0.00,,,0.00,meteobridge,2013-04-24 23:24:00,
2013-04-24 19:29:00,55.9,47.5,29.85,ESE,118,0.0,0.9,73,0.00,,,0.00,meteobridge,2013-04-24 23:29:00,
2013-04-24 19:34:00,55.2,47.1,29.85,SSW,200,2.9,4.9,74,0.00,,,0.00,meteobridge,2013-04-24 23:34:00,
2013-04-24 19:39:00,54.7,46.9,29.85,SSW,212,2.0,4.0,75,0.00,,,0.00,meteobridge,2013-04-24 23:39:00,
2013-04-24 19:45:00,54.1,46.8,29.85,West,270,0.0,0.9,76,0.00,,,0.00,meteobridge,2013-04-24 23:45:00,
2013-04-24 19:50:00,53.4,46.8,29.85,SSW,209,2.0,4.0,78,0.00,,,0.00,meteobridge,2013-04-24 23:50:00,
2013-04-24 19:55:00,52.9,46.6,29.86,West,278,0.9,2.9,79,0.00,,,0.00,meteobridge,2013-04-24 23:55:00,
2013-04-24 20:01:00,52.5,46.6,29.87,ENE,77,0.0,2.0,80,0.00,,,0.00,meteobridge,2013-04-25 00:01:00,
2013-04-24 20:06:00,52.2,46.6,29.88,SSW,197,0.0,2.9,81,0.00,,,0.00,meteobridge,2013-04-25 00:06:00,
2013-04-24 20:12:00,52.2,46.8,29.88,West,274,0.0,0.9,82,0.00,,,0.00,meteobridge,2013-04-25 00:12:00,
2013-04-24 20:17:00,52.0,46.6,29.89,SSW,213,0.0,0.9,82,0.00,,,0.00,meteobridge,2013-04-25 00:17:00,
2013-04-24 20:23:00,51.8,46.4,29.88,NW,310,0.0,2.0,82,0.00,,,0.00,meteobridge,2013-04-25 00:23:00,
2013-04-24 20:28:00,51.6,46.6,29.89,SW,216,0.0,0.9,83,0.00,,,0.00,meteobridge,2013-04-25 00:28:00,
2013-04-24 20:33:00,51.4,46.8,29.88,SSW,199,0.0,0.9,84,0.00,,,0.00,meteobridge,2013-04-25 00:33:00,
2013-04-24 20:38:00,51.3,46.9,29.88,SSW,209,0.0,2.9,85,0.00,,,0.00,meteobridge,2013-04-25 00:38:00,
2013-04-24 20:43:00,51.3,46.9,29.89,SSW,203,0.0,0.9,85,0.00,,,0.00,meteobridge,2013-04-25 00:43:00,
2013-04-24 20:49:00,51.3,47.3,29.89,West,281,0.0,0.9,86,0.00,,,0.00,meteobridge,2013-04-25 00:49:00,
2013-04-24 20:54:00,51.1,47.1,29.89,West,281,0.0,0.0,86,0.00,,,0.00,meteobridge,2013-04-25 00:54:00,
2013-04-24 20:59:00,51.1,47.1,29.89,West,270,0.0,0.9,86,0.00,,,0.00,meteobridge,2013-04-25 00:59:00,
2013-04-24 21:05:00,51.1,47.1,29.89,West,270,0.0,0.0,86,0.00,,,0.00,meteobridge,2013-04-25 01:05:00,
2013-04-24 21:10:00,51.1,47.3,29.88,West,270,0.0,0.0,87,0.00,,,0.00,meteobridge,2013-04-25 01:10:00,
2013-04-24 21:15:00,51.1,47.3,29.88,West,270,0.0,0.0,87,0.00,,,0.00,meteobridge,2013-04-25 01:15:00,
2013-04-24 21:21:00,51.1,47.3,29.88,NNW,332,0.0,0.9,87,0.00,,,0.00,meteobridge,2013-04-25 01:21:00,
2013-04-24 21:26:00,51.1,47.3,29.88,North,350,0.0,0.0,87,0.00,,,0.00,meteobridge,2013-04-25 01:26:00,
2013-04-24 21:31:00,51.1,47.3,29.88,North,350,0.9,0.9,87,0.00,,,0.00,meteobridge,2013-04-25 01:31:00,
2013-04-24 21:36:00,51.1,47.3,29.88,SW,219,0.9,0.9,87,0.00,,,0.00,meteobridge,2013-04-25 01:36:00,
2013-04-24 21:42:00,51.1,47.3,29.88,SSW,204,2.0,2.0,87,0.00,,,0.00,meteobridge,2013-04-25 01:42:00,
2013-04-24 21:47:00,51.1,47.7,29.88,SE,128,0.0,0.9,88,0.00,,,0.00,meteobridge,2013-04-25 01:47:00,
2013-04-24 21:52:00,51.1,47.7,29.88,SE,128,0.0,0.9,88,0.00,,,0.00,meteobridge,2013-04-25 01:52:00,
2013-04-24 21:58:00,51.1,47.7,29.88,ESE,119,0.0,0.9,88,0.00,,,0.00,meteobridge,2013-04-25 01:58:00,
2013-04-24 22:03:00,51.1,47.7,29.88,ENE,67,0.0,0.9,88,0.00,,,0.00,meteobridge,2013-04-25 02:03:00,
2013-04-24 22:08:00,51.1,47.7,29.88,SSW,211,0.0,0.9,88,0.00,,,0.00,meteobridge,2013-04-25 02:08:00,
2013-04-24 22:13:00,51.1,47.7,29.88,ESE,104,0.0,0.9,88,0.00,,,0.00,meteobridge,2013-04-25 02:13:00,
2013-04-24 22:19:00,50.9,47.5,29.88,NNE,31,0.0,0.9,88,0.00,,,0.00,meteobridge,2013-04-25 02:19:00,
2013-04-24 22:24:00,50.9,47.5,29.88,South,181,0.9,4.0,88,0.00,,,0.00,meteobridge,2013-04-25 02:24:00,
2013-04-24 22:29:00,51.1,47.7,29.88,SW,218,0.9,2.9,88,0.00,,,0.00,meteobridge,2013-04-25 02:29:00,
2013-04-24 22:35:00,50.9,47.5,29.88,SW,218,0.0,0.0,88,0.00,,,0.00,meteobridge,2013-04-25 02:35:00,
2013-04-24 22:40:00,50.9,47.5,29.88,ESE,103,0.0,2.9,88,0.00,,,0.00,meteobridge,2013-04-25 02:40:00,
2013-04-24 22:45:00,50.7,47.3,29.88,SSW,213,0.0,0.0,88,0.00,,,0.00,meteobridge,2013-04-25 02:45:00,
2013-04-24 22:51:00,50.7,47.7,29.88,SSW,213,0.0,2.0,89,0.00,,,0.00,meteobridge,2013-04-25 02:51:00,
2013-04-24 22:56:00,50.7,47.7,29.88,WSW,252,0.0,0.9,89,0.00,,,0.00,meteobridge,2013-04-25 02:56:00,
2013-04-24 23:01:00,50.7,47.7,29.88,WSW,252,0.0,0.0,89,0.00,,,0.00,meteobridge,2013-04-25 03:01:00,
2013-04-24 23:07:00,50.7,47.7,29.88,WSW,252,0.0,0.0,89,0.00,,,0.00,meteobridge,2013-04-25 03:07:00,
2013-04-24 23:12:00,50.7,47.7,29.87,WSW,254,0.0,0.0,89,0.00,,,0.00,meteobridge,2013-04-25 03:12:00,
2013-04-24 23:17:00,50.7,47.7,29.88,WSW,254,0.0,0.0,89,0.00,,,0.00,meteobridge,2013-04-25 03:17:00,
2013-04-24 23:23:00,50.7,47.8,29.87,SSW,193,0.0,2.0,90,0.00,,,0.00,meteobridge,2013-04-25 03:23:00,
2013-04-24 23:28:00,50.7,47.8,29.87,SSW,193,0.0,0.0,90,0.00,,,0.00,meteobridge,2013-04-25 03:28:00,
2013-04-24 23:33:00,50.7,47.8,29.87,SSW,193,0.0,0.9,90,0.00,,,0.00,meteobridge,2013-04-25 03:33:00,
2013-04-24 23:38:00,50.7,47.7,29.87,WSW,256,0.9,0.9,89,0.00,,,0.00,meteobridge,2013-04-25 03:38:00,
2013-04-24 23:43:00,50.7,48.2,29.86,SSW,198,0.9,0.9,91,0.00,,,0.00,meteobridge,2013-04-25 03:43:00,
2013-04-24 23:48:00,50.9,48.4,29.86,West,269,0.9,2.9,91,0.00,,,0.00,meteobridge,2013-04-25 03:48:00,
2013-04-24 23:53:00,51.1,48.6,29.87,SW,227,0.0,0.9,91,0.00,,,0.00,meteobridge,2013-04-25 03:53:00,
2013-04-24 23:59:00,51.3,48.7,29.86,SSW,196,0.0,2.9,91,0.00,,,0.00,meteobridge,2013-04-25 03:59:00,